Wind_Speed
3 3 3 2 3 4 4 3 13 15 9 4 9 4 9 4 2 4 17 19 24 23 20 16 14 13 14 16 17 17 17 18 17 14 13 14 13 14 15 15 15 14 15 15 15 15 15 14 14
2 2 2 1 5 3 2 12 19 12 11 14 14 14 9 5 8 14 16 20 27 24 20 18 15 15 15 16 18 17 16 18 16 15 15 14 14 15 15 15 15 14 14 15 15 14 14 16 15
4 2 2 3 3 1 3 10 15 11 16 13 6 12 6 9 13 16 20 30 25 22 20 18 18 17 17 16 16 16 16 15 15 15 15 15 15 15 16 16 15 14 13 14 15 15 14 15 14
5 4 3 4 3 3 3 9 23 23 17 16 13 11 6 6 16 18 31 29 26 22 20 18 19 17 17 19 18 15 15 15 16 15 16 16 15 16 16 17 15 15 15 14 14 15 13 14 17
5 2 4 4 6 7 10 7 16 12 7 15 16 8 12 5 24 34 33 29 29 26 22 19 19 19 18 17 17 16 15 15 16 16 16 16 16 16 16 17 15 15 13 13 14 13 13 14 13
4 2 4 3 7 8 9 12 16 13 16 18 15 10 4 24 30 28 30 28 28 28 24 21 19 19 17 16 15 15 15 14 15 15 16 16 15 15 17 15 15 14 12 12 13 14 15 13 13
6 3 2 3 6 6 5 15 13 16 12 11 14 6 6 14 24 31 28 28 26 26 26 23 20 17 16 16 16 15 15 14 14 14 14 15 15 14 14 16 13 13 11 13 13 14 14 14 12
4 2 5 4 1 7 8 8 11 17 6 15 14 8 11 14 35 30 27 26 25 25 24 22 21 18 17 15 15 14 14 14 13 14 14 14 14 14 14 14 13 11 10 12 13 13 13 12 12
2 3 1 8 9 5 5 8 2 0 16 15 5 13 21 29 30 26 28 28 25 25 24 22 21 20 17 16 13 13 13 13 13 13 13 15 15 14 13 14 11 10 11 11 11 11 13 12 11
2 2 7 8 7 2 5 10 9 4 19 9 14 22 33 31 28 28 25 24 27 26 23 22 21 21 18 17 15 14 13 15 16 18 16 15 12 11 11 11 11 10 12 12 12 11 10 10 11
6 4 5 7 10 4 7 6 3 7 10 20 25 26 25 31 24 22 21 29 31 30 26 26 23 19 17 17 17 17 17 15 15 17 14 11 10 10 9 11 10 9 8 8 7 7 6 5 5
3 5 4 11 9 10 7 1 5 9 13 15 23 27 26 21 23 24 22 22 29 35 32 28 24 22 17 16 18 17 15 13 10 11 10 10 10 8 8 9 6 3 2 3 4 6 6 6 6
16 10 13 9 8 9 8 8 3 5 9 12 14 22 18 20 20 28 30 27 28 33 32 30 25 22 20 18 16 15 13 11 8 10 12 12 10 8 7 5 4 4 5 6 6 6 7 6 3
14 13 8 13 7 10 8 3 3 1 4 13 9 14 10 14 27 23 29 28 35 32 32 32 25 23 20 20 16 14 13 12 11 11 9 14 12 7 4 7 8 8 11 6 2 3 2 2 4
13 9 6 8 8 8 10 5 5 1 7 14 14 13 12 11 18 27 32 35 38 35 31 29 27 24 21 21 18 17 15 11 16 11 9 9 11 7 4 3 4 2 2 2 2 4 6 6 4
8 6 4 4 5 7 5 4 4 1 7 6 14 14 10 12 18 24 26 33 34 34 33 32 27 26 23 21 17 19 15 17 14 13 8 10 7 4 4 3 3 2 0 2 1 2 7 7 8
6 5 2 2 7 3 4 4 4 5 8 5 11 11 11 9 14 23 29 36 35 35 28 25 27 27 21 11 17 19 18 16 17 16 10 9 5 3 4 3 5 2 2 4 3 3 4 8 8
6 7 7 4 4 4 9 8 3 6 7 5 7 7 9 12 13 20 26 32 38 31 25 28 26 21 19 20 21 15 13 19 21 16 12 10 7 8 6 3 2 2 1 1 2 6 3 6 10
6 3 8 2 5 5 10 7 9 7 6 7 7 7 7 13 11 24 25 30 34 27 30 28 27 21 20 20 18 13 13 24 23 17 14 12 11 8 5 5 6 2 6 1 4 4 7 10 4
9 11 1 3 7 7 4 13 5 11 9 9 9 8 9 5 6 15 22 31 30 29 30 27 28 28 23 19 15 12 20 19 18 20 17 12 11 9 6 3 2 7 7 6 0 6 6 11 13
6 9 6 5 3 3 4 4 5 5 5 7 5 9 6 11 8 9 19 26 27 33 34 32 31 32 27 22 17 11 12 16 20 23 18 14 14 9 5 6 2 9 6 6 4 6 6 6 10
3 19 14 14 6 4 9 4 4 5 9 11 13 9 8 10 7 7 20 22 28 32 36 36 32 33 28 23 21 14 13 18 18 20 16 14 15 11 9 6 4 7 7 7 7 7 6 6 8
5 14 15 12 6 3 3 2 5 7 7 13 14 12 11 11 11 10 20 26 30 30 35 37 35 33 28 25 23 17 14 18 22 21 19 13 14 12 10 9 7 5 5 11 6 5 2 3 7
4 2 7 6 3 3 3 4 4 2 6 6 8 12 14 11 11 13 21 25 25 26 28 34 36 34 31 28 24 22 18 20 22 22 18 17 16 14 12 10 7 6 6 5 6 3 1 2 2
8 6 3 3 3 5 6 3 5 4 10 9 10 13 16 14 13 11 10 17 24 27 27 31 35 34 33 30 26 25 21 20 20 20 18 20 20 16 16 12 14 10 9 7 7 5 5 4 2
3 8 5 4 4 6 2 3 1 5 10 13 14 5 12 13 14 13 14 21 24 28 31 31 34 34 35 32 26 21 20 19 15 14 20 19 25 20 17 16 17 12 12 10 10 9 9 7 2
4 2 5 5 3 4 4 5 5 8 14 13 15 15 13 8 10 12 13 21 25 31 33 33 34 34 36 35 30 26 20 18 16 18 19 17 22 22 17 18 20 17 14 13 12 13 11 10 6
3 1 3 4 2 1 4 3 4 5 7 9 12 11 12 10 4 10 16 20 26 30 32 31 35 36 39 35 36 33 25 23 19 20 17 15 15 16 20 17 26 19 15 14 14 13 9 8 8
5 3 7 6 3 4 1 5 2 3 2 3 6 8 11 13 8 8 11 20 21 23 29 32 34 33 34 36 35 35 31 25 25 20 20 16 15 14 15 13 22 21 18 16 15 15 14 10 9
4 4 5 5 3 1 3 5 7 7 4 3 6 11 8 7 15 7 14 8 11 16 30 35 33 33 34 38 35 35 34 30 26 26 22 19 16 16 16 16 18 16 19 17 16 14 14 14 13
Wind_Direction
255 253 11 50 71 52 63 47 119 108 143 160 114 168 139 54 132 156 149 159 165 154 150 149 147 136 133 127 126 125 124 121 124 119 113 112 111 109 112 115 113 112 108 107 107 108 107 107 103
296 345 356 138 76 51 124 129 91 95 99 130 107 82 55 73 65 107 130 161 158 153 152 144 139 132 134 131 126 120 120 119 121 124 121 116 112 112 109 113 118 121 117 118 118 115 118 114 116
355 259 58 55 88 337 64 107 110 121 115 123 105 69 83 110 109 147 153 160 156 152 149 144 139 137 137 130 119 117 121 121 123 123 124 122 120 118 116 116 117 119 123 123 119 117 120 118 118
0 356 31 69 356 33 39 125 116 110 96 106 102 86 72 161 144 144 155 153 151 148 145 145 143 139 136 132 132 130 129 130 132 129 126 122 119 118 117 119 121 122 126 121 122 121 127 123 118
26 30 52 48 12 352 337 155 123 112 128 113 120 115 125 129 146 146 150 153 146 146 144 146 144 142 138 135 134 135 133 133 133 131 127 126 123 121 124 122 121 125 123 127 127 129 134 127 113
34 26 32 37 9 345 299 334 100 92 116 117 113 119 58 141 131 137 144 149 145 143 144 142 144 140 138 136 138 139 135 133 131 128 128 129 127 125 130 127 128 127 134 129 133 139 142 133 119
103 45 88 14 6 343 282 332 105 106 127 135 122 95 121 149 138 141 136 141 141 145 143 145 143 141 143 146 144 141 138 138 133 133 134 130 127 124 131 129 127 134 136 130 138 147 150 139 135
99 95 127 103 304 271 291 316 151 141 166 127 126 147 163 161 149 136 136 139 143 147 148 145 145 149 150 148 145 143 144 142 142 141 136 130 131 129 135 132 133 135 132 130 137 146 154 149 148
19 40 243 160 167 230 250 53 104 300 130 157 138 147 148 148 145 132 134 141 143 149 149 150 152 151 153 154 145 148 149 147 145 150 144 140 138 136 138 135 134 133 126 118 123 144 162 163 156
134 214 213 172 158 238 310 34 336 154 151 140 101 126 147 152 152 142 146 149 151 154 154 156 155 156 161 160 160 159 157 146 148 145 144 145 140 131 138 134 134 127 114 113 122 133 149 164 165
146 223 181 145 120 118 348 322 291 201 152 147 142 148 151 155 155 150 156 161 161 158 159 163 163 162 163 165 158 154 150 157 156 151 146 152 161 159 157 148 148 144 137 131 136 156 179 193 217
356 274 135 137 166 145 192 90 270 151 151 160 143 158 149 148 162 156 152 163 165 168 170 170 165 161 162 162 158 156 167 172 177 194 189 190 170 167 169 156 154 176 232 249 254 254 256 257 262
85 293 131 160 168 121 153 213 288 158 167 155 143 149 147 153 147 165 159 164 167 172 169 168 164 160 162 168 170 173 173 167 156 161 175 183 181 181 194 202 235 270 275 285 288 270 278 294 349
174 214 125 137 156 156 170 259 287 143 145 174 160 139 141 138 145 154 154 166 176 179 169 167 171 173 177 179 185 184 178 172 164 147 155 189 200 192 230 246 262 282 286 269 286 221 275 248 85
152 141 67 119 178 174 197 232 163 312 253 185 152 148 147 141 138 159 162 168 179 181 171 174 175 171 187 193 189 195 194 198 168 164 145 164 165 131 138 172 226 123 112 316 241 224 281 227 139
159 169 119 222 288 164 173 239 179 113 69 154 154 154 150 144 152 157 158 166 180 171 170 168 166 177 191 187 193 188 200 181 180 162 157 137 140 128 132 114 161 9 192 8 322 355 344 206 173
194 117 45 217 211 205 169 246 210 139 92 37 148 146 151 134 147 153 161 173 176 170 179 182 187 179 184 173 179 183 178 188 186 175 172 168 162 155 159 129 77 97 18 338 354 26 273 219 205
166 147 210 212 171 183 200 233 261 155 125 132 148 150 152 161 163 161 161 170 174 178 179 171 175 175 193 193 179 180 216 207 190 185 172 171 176 173 203 197 129 91 284 96 75 23 61 210 214
223 185 116 202 162 184 219 220 205 153 174 172 177 173 184 158 173 167 169 169 180 180 176 171 179 179 180 190 184 207 198 179 183 176 182 182 174 184 218 126 156 149 178 121 344 56 76 76 55
268 137 74 326 187 177 187 235 178 177 194 190 180 192 162 162 155 165 171 175 178 181 178 181 184 181 186 192 197 204 164 173 184 190 191 184 189 173 153 174 184 173 155 169 307 51 56 73 62
252 145 151 246 151 281 20 250 175 190 176 178 212 186 190 168 178 165 165 176 172 178 186 188 187 184 184 192 199 196 166 159 174 184 192 202 191 170 168 169 169 183 127 148 93 49 42 76 62
177 144 134 246 139 208 153 270 240 195 192 183 196 190 180 162 167 159 166 171 176 178 183 184 187 185 184 192 197 201 184 173 182 190 202 195 193 177 176 175 171 170 139 121 98 65 52 73 72
188 159 183 193 177 76 1 91 260 170 207 211 194 196 191 181 172 167 165 180 183 178 180 189 191 189 189 193 200 206 209 201 198 199 204 202 197 197 189 193 202 199 196 158 100 84 68 94 96
129 126 34 50 94 30 252 165 283 66 307 268 200 186 201 193 183 185 178 178 187 183 182 188 190 191 191 196 203 211 217 200 194 204 206 203 211 206 210 203 209 204 180 179 181 165 229 260 254
69 67 358 20 28 218 210 97 234 336 33 359 203 198 194 192 195 187 162 172 180 182 182 186 195 198 197 198 203 208 221 201 201 209 212 213 214 219 206 213 208 212 206 199 195 202 226 242 290
172 151 155 192 191 238 274 189 193 81 27 32 31 289 192 185 194 205 175 184 180 187 187 187 198 203 204 196 201 202 198 197 202 221 220 229 213 215 206 205 216 223 216 216 211 207 224 238 312
291 29 183 131 36 83 302 304 113 32 26 29 28 19 1 341 219 204 176 184 190 189 192 188 197 202 200 198 200 206 204 202 203 208 207 217 217 221 210 212 216 221 218 217 212 221 231 232 251
145 187 30 18 110 127 309 294 240 350 8 23 31 10 334 290 287 230 211 187 199 199 190 188 198 202 202 205 203 206 209 207 205 207 208 206 214 214 224 231 213 215 225 225 229 229 227 222 245
1 41 62 107 104 153 181 261 166 164 249 80 64 45 6 327 273 205 226 216 184 197 182 189 197 203 206 210 211 208 208 209 209 214 214 212 216 216 214 199 200 215 220 225 232 236 236 237 238
160 146 116 121 205 136 145 271 163 139 152 313 36 16 21 341 320 227 198 216 178 192 184 190 197 198 207 210 215 215 208 207 211 214 210 216 210 203 205 210 216 223 223 221 222 233 239 245 247
Height
779 778 779 780 800 801 810 800 784 789 796 781 787 793 793 794 800 826 805 812 814 816 818 821 823 823 823 823 823 824 825 824 826 827 827 828 829 829 830 830 831 832 833 834 834 835 837 837 839
779 780 779 784 810 814 810 788 791 787 780 784 784 785 794 809 796 804 811 814 816 817 819 821 823 824 825 825 825 826 827 827 829 830 830 831 831 832 833 833 833 835 836 837 837 839 840 841 842
780 781 787 796 812 813 811 789 787 784 778 781 788 785 797 808 805 807 809 814 817 819 821 823 824 825 827 828 827 828 829 831 832 833 833 834 834 834 835 836 837 837 839 841 841 842 844 844 845
782 781 787 807 810 792 795 786 775 779 781 780 783 802 800 802 803 807 811 815 817 821 824 826 827 828 830 830 831 832 832 834 836 836 837 837 837 838 838 839 839 840 841 842 844 845 846 848 847
781 787 806 811 808 798 792 778 772 781 784 785 786 806 808 808 806 810 814 817 817 821 825 827 829 830 831 833 833 835 835 837 839 839 839 840 840 841 842 841 842 843 844 845 845 848 848 849 850
792 795 818 826 820 813 799 782 775 783 782 787 794 800 812 810 810 816 818 820 822 823 827 830 831 832 834 835 836 837 837 839 840 841 842 842 843 844 843 844 844 845 847 847 848 850 850 851 852
800 810 821 824 826 821 804 788 784 783 790 790 786 809 816 816 816 818 822 824 827 829 829 830 832 834 836 838 839 838 839 841 843 844 844 845 845 846 847 846 847 847 848 848 850 852 853 853 854
799 807 821 825 827 823 800 787 785 779 792 783 788 813 819 814 817 820 825 825 828 830 831 832 833 835 837 839 839 839 841 842 844 846 846 847 848 849 850 849 850 851 851 850 852 853 854 855 855
799 820 824 823 825 814 796 797 787 781 785 785 783 796 803 813 819 821 824 826 828 831 831 834 834 835 837 839 841 841 844 845 846 847 848 849 850 850 851 851 852 853 853 852 853 854 855 856 857
808 822 811 801 804 808 797 798 795 789 788 794 795 801 807 813 818 820 821 824 823 829 832 834 835 836 838 839 841 843 845 847 848 848 850 851 852 852 853 854 854 855 854 855 855 856 857 857 858
805 815 795 798 799 801 802 802 796 794 800 789 800 801 806 812 817 819 822 820 822 826 831 834 837 838 838 840 842 844 847 849 851 850 851 853 853 854 855 855 856 856 857 857 857 858 858 858 859
807 793 793 797 798 800 807 804 799 786 789 785 789 795 802 811 815 819 822 823 824 827 830 834 836 836 839 842 844 846 849 850 853 853 853 854 854 855 855 856 857 858 858 858 858 859 859 859 860
804 800 789 793 797 799 799 802 801 791 786 784 789 797 802 810 812 815 819 824 827 828 831 834 835 836 839 842 845 847 849 850 852 851 853 854 855 855 856 857 858 858 858 858 859 859 859 859 859
788 799 793 791 802 801 805 806 804 793 787 787 791 795 800 805 809 815 819 823 825 827 828 831 834 836 839 842 845 847 849 850 852 853 854 855 856 857 857 858 858 858 858 858 860 860 861 860 861
787 800 801 797 798 800 801 810 808 794 789 790 794 796 798 799 806 808 814 819 820 823 827 829 833 837 840 843 845 847 848 850 852 853 854 854 857 857 857 857 858 859 859 860 861 861 861 860 861
793 800 813 806 801 793 799 816 795 792 789 794 796 796 798 799 804 809 815 817 819 821 824 828 832 836 840 842 845 846 848 850 851 852 854 855 855 855 856 856 857 859 860 860 861 861 861 861 861
786 813 820 809 798 799 800 810 793 793 792 797 798 798 799 801 805 808 812 815 818 822 825 828 831 835 838 840 844 846 849 850 851 852 853 854 854 854 856 856 858 858 859 859 859 859 859 861 861
804 806 806 803 796 800 803 804 795 795 794 799 800 803 802 801 802 807 812 815 817 821 824 827 831 835 837 839 843 846 847 847 850 851 852 852 853 855 856 857 858 858 858 858 859 859 858 859 862
785 787 803 797 789 797 799 795 795 797 798 798 801 803 802 801 802 805 811 814 817 819 822 824 828 832 836 839 841 844 843 847 850 851 852 852 854 855 856 857 857 858 857 858 860 860 860 862 861
780 786 804 791 785 792 793 794 789 793 795 793 796 797 801 803 801 806 810 812 814 817 820 824 827 830 834 838 840 842 845 846 848 850 852 853 853 854 856 857 857 857 858 859 861 859 858 860 860
774 786 796 797 785 786 791 801 798 793 793 793 794 793 793 796 800 804 808 811 812 815 818 821 826 829 833 837 840 841 843 845 847 850 852 852 852 854 855 856 856 856 857 858 858 859 859 859 860
784 766 774 781 795 817 788 828 801 794 795 794 792 791 792 794 796 801 805 808 810 812 816 820 823 827 831 835 838 840 843 844 846 849 851 851 852 853 854 856 856 856 856 857 858 860 860 859 859
769 755 768 771 791 794 799 815 799 792 798 792 789 790 789 791 791 794 798 804 807 810 814 817 822 826 829 832 835 838 841 843 844 847 848 849 851 852 854 855 855 856 855 856 857 859 860 859 860
749 760 778 790 805 830 803 810 809 809 801 785 787 785 786 787 790 792 796 800 805 809 813 815 819 823 827 830 833 835 839 842 843 844 846 847 848 851 853 854 854 854 855 856 857 860 860 861 860
762 793 832 830 834 835 805 812 817 796 788 788 781 780 779 783 786 790 794 797 802 806 810 814 817 822 824 828 831 834 837 840 841 842 843 844 846 849 851 852 854 854 854 856 857 858 860 861 859
767 789 826 828 844 830 794 809 803 794 790 783 781 777 775 778 781 784 790 792 797 802 805 810 812 819 823 825 829 833 835 836 838 839 841 841 844 847 850 851 852 854 855 855 855 857 858 858 858
766 788 777 807 813 826 825 801 796 789 789 790 789 787 790 786 783 782 786 789 793 797 800 804 809 814 819 821 825 829 832 835 836 837 839 841 843 845 847 849 850 852 853 854 854 855 855 855 855
756 761 796 815 830 831 826 817 818 801 802 796 795 795 791 784 780 780 781 786 789 792 795 801 807 811 815 820 821 824 828 831 835 836 837 838 840 841 842 844 845 847 849 851 852 853 853 853 853
777 785 801 815 828 839 841 830 797 802 802 799 789 789 788 785 778 773 777 779 784 791 792 798 803 810 813 816 820 821 824 828 831 834 835 836 837 837 839 840 843 845 847 848 849 850 850 849 850
763 775 795 821 821 832 834 828 791 794 795 793 787 781 776 781 775 768 770 779 785 787 788 791 797 803 809 811 817 820 820 823 827 829 831 834 837 837 839 840 842 843 845 846 846 846 847 848 848